Location: Trois-Rivi�res
(46.3500°N, 72.5500°W)
Time: 07:27:18
(UTC-04:00)

Cosmos 1544 - Visible Passes

Search period start: 21 April 2018 00:00
Search period end: 01 May 2018 00:00
Orbit: 475 x 496 km, 82.5° (Epoch: 20 April)

Date Brightness Start Highest point End Pass type
(mag) Time Alt. Az. Time Alt. Az. Time Alt. Az.
21 Apr 6.1 02:09:42 10° NE 02:10:36 11° ENE 02:11:31 10° E visible
21 Apr 3.0 03:42:29 10° NNW 03:46:07 61° W 03:46:11 61° WSW visible
22 Apr 3.0 03:18:08 10° N 03:21:44 81° NE 03:21:44 81° NE visible
23 Apr 3.8 02:53:54 10° N 02:57:18 50° ENE 02:57:18 50° ENE visible
23 Apr 5.3 04:30:47 10° WNW 04:31:41 11° WNW 04:31:41 11° WNW visible
24 Apr 4.7 02:29:46 10° N 02:32:55 32° ENE 02:32:55 32° ENE visible
24 Apr 4.9 04:05:27 10° NW 04:07:17 17° WNW 04:07:17 17° WNW visible
25 Apr 5.3 02:05:47 10° NNE 02:08:32 22° ENE 02:08:32 22° ENE visible
25 Apr 4.5 03:40:39 10° NNW 03:42:54 24° WNW 03:42:54 24° WNW visible
26 Apr 5.8 01:42:04 10° NNE 01:44:11 15° ENE 01:44:11 15° ENE visible
26 Apr 4.2 03:16:04 10° NNW 03:18:34 33° NW 03:18:34 33° NW visible
27 Apr 3.9 02:51:36 10° NNW 02:54:15 43° NNW 02:54:15 43° NNW visible
28 Apr 4.1 02:27:16 10° N 02:29:56 45° N 02:29:56 45° N visible
29 Apr 4.5 02:03:01 10° N 02:05:38 36° NE 02:05:38 36° NE visible
29 Apr 5.5 03:39:34 10° WNW 03:40:01 11° WNW 03:40:01 11° WNW visible
30 Apr 5.0 01:38:54 10° NNE 01:41:22 27° NE 01:41:22 27° NE visible
30 Apr 5.2 03:14:24 10° NW 03:15:45 16° WNW 03:15:45 16° WNW visible
